TNO1122 MROC-KMIA

Flight info

Callsign TNO1122
Flight time 2h 27m
Altitude 35000
Route NANJO3R RADON UB767 PZA/N0454F380 UZ751 SELEK UL345 IKBIX SNDBR3
Aircraft A319/M-SDE3FGHIRWY/LB1

Departure

Time 2026-05-05 09:26
Airport Juan Santamaría International Airport (MROC)

Arrival

Time 2026-05-05 11:53
Airport Miami International Airport (KMIA)
Time Latitude Longitude Altitude Speed Heading
2026-05-05 09:13 9.99756 -84.20354 3033 ft 0 kts 339°
2026-05-05 09:20 9.99750 -84.20352 3033 ft 2 kts 339°
2026-05-05 09:21 9.99734 -84.20344 3033 ft 3 kts 329°
2026-05-05 09:21 9.99720 -84.20332 3033 ft 1 kts 313°
2026-05-05 09:21 9.99720 -84.20340 3033 ft 4 kts 257°
2026-05-05 09:21 9.99659 -84.20420 3033 ft 24 kts 232°
2026-05-05 09:22 9.99581 -84.20575 3033 ft 21 kts 253°
2026-05-05 09:22 9.99537 -84.20714 3033 ft 19 kts 251°
2026-05-05 09:22 9.99495 -84.20823 3033 ft 20 kts 246°
2026-05-05 09:22 9.99443 -84.20957 3033 ft 18 kts 247°
2026-05-05 09:23 9.99401 -84.21073 3033 ft 16 kts 250°
2026-05-05 09:23 9.99354 -84.21205 3033 ft 31 kts 251°
2026-05-05 09:23 9.99277 -84.21422 3033 ft 32 kts 249°
2026-05-05 09:23 9.99200 -84.21624 3033 ft 28 kts 249°
2026-05-05 09:24 9.99141 -84.21785 3033 ft 22 kts 250°
2026-05-05 09:24 9.99085 -84.21941 3033 ft 26 kts 250°
2026-05-05 09:24 9.99029 -84.22096 3033 ft 22 kts 250°
2026-05-05 09:24 9.98976 -84.22217 3033 ft 14 kts 207°
2026-05-05 09:25 9.98921 -84.22212 3033 ft 0 kts 160°
2026-05-05 09:25 9.98886 -84.22191 3033 ft 7 kts 104°
2026-05-05 09:25 9.98891 -84.22162 3033 ft 3 kts 69°
2026-05-05 09:25 9.98968 -84.21958 3033 ft 77 kts 69°
2026-05-05 09:26 9.99286 -84.21110 3041 ft 177 kts 70°
2026-05-05 09:26 9.99798 -84.19812 3489 ft 216 kts 72°
2026-05-05 09:26 10.00519 -84.18405 3979 ft 239 kts 54°
2026-05-05 09:26 10.01838 -84.17243 4547 ft 259 kts 31°
2026-05-05 09:27 10.03528 -84.16651 4999 ft 261 kts
2026-05-05 09:27 10.05346 -84.16622 5508 ft 261 kts 356°
2026-05-05 09:27 10.07138 -84.16829 5960 ft 261 kts 352°
2026-05-05 09:27 10.08945 -84.17073 6409 ft 261 kts 353°
2026-05-05 09:28 10.10754 -84.17245 6902 ft 260 kts 356°
2026-05-05 09:28 10.12561 -84.17309 7403 ft 262 kts 360°
2026-05-05 09:28 10.14377 -84.17270 7903 ft 264 kts
2026-05-05 09:28 10.16224 -84.17137 8412 ft 266 kts
2026-05-05 09:29 10.18075 -84.16931 8924 ft 268 kts
2026-05-05 09:29 10.19912 -84.16673 9425 ft 270 kts 10°
2026-05-05 09:29 10.21781 -84.16373 9928 ft 271 kts 11°
2026-05-05 09:29 10.23657 -84.16045 10432 ft 273 kts 12°
2026-05-05 09:30 10.25505 -84.15706 10928 ft 275 kts 13°
2026-05-05 09:30 10.27406 -84.15345 11432 ft 277 kts 13°
2026-05-05 09:30 10.29309 -84.14977 11936 ft 279 kts 13°
2026-05-05 09:30 10.31198 -84.14606 12431 ft 281 kts 13°
2026-05-05 09:31 10.33131 -84.14223 12934 ft 283 kts 13°
2026-05-05 09:31 10.35073 -84.13835 13437 ft 285 kts 13°
2026-05-05 09:31 10.37012 -84.13448 13934 ft 287 kts 13°
2026-05-05 09:31 10.38998 -84.13052 14440 ft 290 kts 13°
2026-05-05 09:32 10.40965 -84.12660 14936 ft 292 kts 13°
2026-05-05 09:32 10.42977 -84.12261 15441 ft 294 kts 12°
2026-05-05 09:32 10.44996 -84.11859 15942 ft 297 kts 12°
2026-05-05 09:32 10.47013 -84.11459 16439 ft 299 kts 12°
2026-05-05 09:33 10.49083 -84.11050 16945 ft 302 kts 12°
2026-05-05 09:33 10.51135 -84.10643 17442 ft 304 kts 12°
2026-05-05 09:33 10.53228 -84.10229 17946 ft 307 kts 11°
2026-05-05 09:33 10.55338 -84.09811 18447 ft 309 kts 11°
2026-05-05 09:34 10.57450 -84.09393 18946 ft 312 kts 11°
2026-05-05 09:34 10.59590 -84.08969 19451 ft 315 kts 11°
2026-05-05 09:34 10.61750 -84.08541 19950 ft 317 kts 11°
2026-05-05 09:34 10.63904 -84.08115 20444 ft 319 kts 10°
2026-05-05 09:35 10.66109 -84.07677 20936 ft 322 kts 11°
2026-05-05 09:35 10.70515 -84.06751 21938 ft 328 kts 11°
2026-05-05 09:35 10.72754 -84.06263 22383 ft 328 kts 12°
2026-05-05 09:36 10.74995 -84.05766 22893 ft 330 kts 12°
2026-05-05 09:36 10.77232 -84.05264 23436 ft 328 kts 13°
2026-05-05 09:36 10.79452 -84.04760 23984 ft 333 kts 13°
2026-05-05 09:36 10.81739 -84.04238 24492 ft 336 kts 13°
2026-05-05 09:37 10.84034 -84.03714 24996 ft 338 kts 13°
2026-05-05 09:37 10.86321 -84.03192 25494 ft 340 kts 13°
2026-05-05 09:37 10.88646 -84.02661 25997 ft 342 kts 13°
2026-05-05 09:37 10.90964 -84.02132 26495 ft 344 kts 12°
2026-05-05 09:38 10.93296 -84.01600 26993 ft 347 kts 12°
2026-05-05 09:38 10.95666 -84.01059 27496 ft 350 kts 12°
2026-05-05 09:38 10.98061 -84.00512 28001 ft 353 kts 12°
2026-05-05 09:38 11.00480 -83.99959 28507 ft 356 kts 12°
2026-05-05 09:39 11.02888 -83.99409 29004 ft 359 kts 12°
2026-05-05 09:39 11.05337 -83.98849 29507 ft 362 kts 12°
2026-05-05 09:39 11.07812 -83.98283 30010 ft 365 kts 12°
2026-05-05 09:39 11.10278 -83.97720 30507 ft 368 kts 12°
2026-05-05 09:40 11.12803 -83.97143 31010 ft 371 kts 12°
2026-05-05 09:40 11.15338 -83.96564 31512 ft 374 kts 12°
2026-05-05 09:40 11.17860 -83.95988 32007 ft 377 kts 12°
2026-05-05 09:40 11.20444 -83.95398 32509 ft 380 kts 12°
2026-05-05 09:41 11.23053 -83.94802 33012 ft 384 kts 12°
2026-05-05 09:41 11.25644 -83.94210 33508 ft 387 kts 12°
2026-05-05 09:41 11.28302 -83.93602 34012 ft 391 kts 12°
2026-05-05 09:41 11.30956 -83.92995 34510 ft 395 kts 12°
2026-05-05 09:42 11.33677 -83.92373 34796 ft 405 kts 12°
2026-05-05 09:42 11.36460 -83.91737 34903 ft 418 kts 12°
2026-05-05 09:42 11.39342 -83.91078 34930 ft 429 kts 12°
2026-05-05 09:42 11.42268 -83.90408 34923 ft 430 kts 12°
2026-05-05 09:43 11.48125 -83.89065 34921 ft 437 kts 12°
2026-05-05 09:43 11.54103 -83.87693 34916 ft 443 kts 12°
2026-05-05 09:44 11.60142 -83.86306 34913 ft 446 kts 12°
2026-05-05 09:44 11.66211 -83.84911 34910 ft 447 kts 12°
2026-05-05 09:45 11.72260 -83.83522 34908 ft 448 kts 12°
2026-05-05 09:45 11.78353 -83.82121 34907 ft 449 kts 12°
2026-05-05 09:46 11.84448 -83.80719 34905 ft 449 kts 12°
2026-05-05 09:46 11.90552 -83.79315 34905 ft 449 kts 12°
2026-05-05 09:47 11.96656 -83.77919 34904 ft 449 kts 11°
2026-05-05 09:47 12.02781 -83.76653 34904 ft 449 kts 10°
2026-05-05 09:48 12.08922 -83.75472 34904 ft 449 kts
2026-05-05 09:48 12.15070 -83.74324 34904 ft 449 kts
2026-05-05 09:49 12.21186 -83.73191 34905 ft 449 kts
2026-05-05 09:49 12.27339 -83.72054 34905 ft 449 kts
2026-05-05 09:50 12.33484 -83.70917 34905 ft 449 kts
2026-05-05 09:50 12.39631 -83.69777 34905 ft 448 kts
2026-05-05 09:51 12.45734 -83.68642 34906 ft 448 kts
2026-05-05 09:51 12.51902 -83.67493 34906 ft 449 kts
2026-05-05 09:52 12.58082 -83.66342 34911 ft 460 kts
2026-05-05 09:52 12.64455 -83.65155 34908 ft 469 kts
2026-05-05 09:53 12.70905 -83.63951 34906 ft 473 kts
2026-05-05 09:53 12.77401 -83.62737 34905 ft 475 kts
2026-05-05 09:54 12.83907 -83.61520 34904 ft 476 kts
2026-05-05 09:54 12.89328 -83.60505 34903 ft 476 kts
2026-05-05 09:55 12.96910 -83.59085 34902 ft 476 kts
2026-05-05 09:55 13.02368 -83.58061 34901 ft 476 kts
2026-05-05 09:56 13.08880 -83.56840 34899 ft 476 kts
2026-05-05 09:56 13.15354 -83.55626 34897 ft 476 kts
2026-05-05 09:57 13.21862 -83.54404 34895 ft 475 kts
2026-05-05 09:57 13.28378 -83.53180 34893 ft 475 kts
2026-05-05 09:58 13.34892 -83.51955 34891 ft 475 kts
2026-05-05 09:58 13.41398 -83.50733 34889 ft 475 kts
2026-05-05 09:59 13.47908 -83.49509 34887 ft 475 kts
2026-05-05 09:59 13.54368 -83.48294 34885 ft 475 kts
2026-05-05 10:00 13.60871 -83.47069 34882 ft 475 kts
2026-05-05 10:00 13.67366 -83.45846 34881 ft 475 kts
2026-05-05 10:01 13.73859 -83.44622 34879 ft 474 kts
2026-05-05 10:01 13.80363 -83.43395 34877 ft 474 kts
2026-05-05 10:02 13.86827 -83.42176 34876 ft 474 kts
2026-05-05 10:02 13.93327 -83.40948 34876 ft 474 kts
2026-05-05 10:03 13.99833 -83.39718 34875 ft 474 kts
2026-05-05 10:03 14.06335 -83.38558 34875 ft 473 kts
2026-05-05 10:04 14.12844 -83.37495 34875 ft 473 kts
2026-05-05 10:04 14.19303 -83.36479 34875 ft 472 kts
2026-05-05 10:05 14.25808 -83.35468 34875 ft 472 kts
2026-05-05 10:05 14.32324 -83.34459 34876 ft 472 kts
2026-05-05 10:06 14.38808 -83.33454 34876 ft 472 kts
2026-05-05 10:06 14.45303 -83.32444 34877 ft 471 kts
2026-05-05 10:07 14.51781 -83.31436 34878 ft 471 kts
2026-05-05 10:07 14.58253 -83.30425 34879 ft 471 kts
2026-05-05 10:08 14.64714 -83.29415 34880 ft 471 kts
2026-05-05 10:08 14.71187 -83.28402 34882 ft 470 kts
2026-05-05 10:09 14.77639 -83.27391 34883 ft 470 kts
2026-05-05 10:09 14.84099 -83.26378 34885 ft 470 kts
2026-05-05 10:10 14.90582 -83.25360 34886 ft 469 kts
2026-05-05 10:10 14.97032 -83.24346 34888 ft 469 kts
2026-05-05 10:11 15.03474 -83.23332 34890 ft 468 kts
2026-05-05 10:11 15.09909 -83.22319 34891 ft 468 kts
2026-05-05 10:12 15.16339 -83.21306 34893 ft 467 kts
2026-05-05 10:12 15.22764 -83.20294 34895 ft 467 kts
2026-05-05 10:13 15.29179 -83.19282 34897 ft 467 kts
2026-05-05 10:13 15.35586 -83.18271 34898 ft 466 kts
2026-05-05 10:14 15.42001 -83.17258 34900 ft 466 kts
2026-05-05 10:14 15.48402 -83.16248 34902 ft 466 kts
2026-05-05 10:15 15.54811 -83.15234 34904 ft 465 kts
2026-05-05 10:15 15.61227 -83.14220 34906 ft 465 kts
2026-05-05 10:16 15.67626 -83.13208 34907 ft 465 kts
2026-05-05 10:16 15.74011 -83.12197 34909 ft 465 kts
2026-05-05 10:17 15.80385 -83.11187 34911 ft 465 kts
2026-05-05 10:17 15.86761 -83.10176 34913 ft 464 kts
2026-05-05 10:18 15.93171 -83.09159 34915 ft 464 kts
2026-05-05 10:18 15.99519 -83.08151 34916 ft 464 kts
2026-05-05 10:19 16.05932 -83.07129 34919 ft 463 kts
2026-05-05 10:19 16.12278 -83.06119 34920 ft 462 kts
2026-05-05 10:20 16.18613 -83.05112 34922 ft 462 kts
2026-05-05 10:20 16.24958 -83.04102 34924 ft 461 kts
2026-05-05 10:21 16.31329 -83.03088 34925 ft 461 kts
2026-05-05 10:21 16.37662 -83.02079 34918 ft 461 kts
2026-05-05 10:22 16.44000 -83.01069 34914 ft 461 kts
2026-05-05 10:22 16.50316 -83.00061 34915 ft 460 kts
2026-05-05 10:23 16.56644 -82.99051 34917 ft 460 kts
2026-05-05 10:23 16.63000 -82.98035 34919 ft 460 kts
2026-05-05 10:24 16.69307 -82.97026 34921 ft 460 kts
2026-05-05 10:24 16.75625 -82.96015 34922 ft 460 kts
2026-05-05 10:25 16.81959 -82.95001 34924 ft 459 kts
2026-05-05 10:25 16.88273 -82.93988 34929 ft 459 kts
2026-05-05 10:26 16.94575 -82.92977 34939 ft 459 kts
2026-05-05 10:26 17.00879 -82.91966 34941 ft 459 kts
2026-05-05 10:27 17.07168 -82.90956 34944 ft 458 kts
2026-05-05 10:27 17.13461 -82.89945 34946 ft 458 kts
2026-05-05 10:28 17.19770 -82.88930 34948 ft 458 kts
2026-05-05 10:28 17.26064 -82.87918 34950 ft 457 kts
2026-05-05 10:29 17.32345 -82.86906 34952 ft 457 kts
2026-05-05 10:29 17.38639 -82.85892 34954 ft 457 kts
2026-05-05 10:30 17.44918 -82.84879 34956 ft 457 kts
2026-05-05 10:30 17.51181 -82.83869 34958 ft 457 kts
2026-05-05 10:31 17.57471 -82.82852 34960 ft 457 kts
2026-05-05 10:31 17.63756 -82.81836 34961 ft 457 kts
2026-05-05 10:32 17.70044 -82.80819 34963 ft 457 kts
2026-05-05 10:32 17.76340 -82.79801 34965 ft 456 kts
2026-05-05 10:33 17.82615 -82.78785 34966 ft 456 kts
2026-05-05 10:33 17.88858 -82.77773 34968 ft 456 kts
2026-05-05 10:34 17.95138 -82.76755 34970 ft 456 kts
2026-05-05 10:34 18.01423 -82.75734 34972 ft 456 kts
2026-05-05 10:35 18.07685 -82.74717 34972 ft 455 kts
2026-05-05 10:35 18.13938 -82.73700 34974 ft 454 kts
2026-05-05 10:36 18.20188 -82.72684 34975 ft 454 kts
2026-05-05 10:36 18.26392 -82.71674 34976 ft 454 kts
2026-05-05 10:37 18.32635 -82.70657 34981 ft 453 kts
2026-05-05 10:37 18.38873 -82.69641 34990 ft 453 kts
2026-05-05 10:38 18.45069 -82.68631 34990 ft 453 kts
2026-05-05 10:38 18.51310 -82.67612 34991 ft 453 kts
2026-05-05 10:39 18.57538 -82.66595 34992 ft 453 kts
2026-05-05 10:39 18.63765 -82.65577 34995 ft 453 kts
2026-05-05 10:40 18.69993 -82.64559 34995 ft 453 kts
2026-05-05 10:40 18.76215 -82.63541 34996 ft 453 kts
2026-05-05 10:41 18.82442 -82.62520 34995 ft 453 kts
2026-05-05 10:41 18.88627 -82.61506 34995 ft 452 kts
2026-05-05 10:42 18.97963 -82.59974 34995 ft 452 kts
2026-05-05 10:43 19.04183 -82.58952 34995 ft 452 kts
2026-05-05 10:43 19.10396 -82.57930 34995 ft 451 kts
2026-05-05 10:44 19.15559 -82.57081 34995 ft 451 kts
2026-05-05 10:44 19.22784 -82.55891 34995 ft 451 kts
2026-05-05 10:45 19.27959 -82.55038 34995 ft 451 kts
2026-05-05 10:45 19.34160 -82.54016 34998 ft 451 kts
2026-05-05 10:46 19.40364 -82.52992 34999 ft 450 kts
2026-05-05 10:46 19.46549 -82.51970 34999 ft 450 kts
2026-05-05 10:47 19.52708 -82.50952 34999 ft 450 kts
2026-05-05 10:47 19.58896 -82.49929 34999 ft 450 kts
2026-05-05 10:48 19.65120 -82.48898 34999 ft 450 kts
2026-05-05 10:48 19.71295 -82.47875 34999 ft 450 kts
2026-05-05 10:49 19.77473 -82.46850 34995 ft 450 kts
2026-05-05 10:49 19.83655 -82.45824 34995 ft 449 kts
2026-05-05 10:50 19.89799 -82.44803 34995 ft 449 kts
2026-05-05 10:50 19.96013 -82.43771 34995 ft 450 kts
2026-05-05 10:51 20.02170 -82.42747 34995 ft 450 kts
2026-05-05 10:51 20.08348 -82.41622 34996 ft 451 kts
2026-05-05 10:52 20.14446 -82.40099 34997 ft 452 kts 10°
2026-05-05 10:52 20.20512 -82.38344 34997 ft 453 kts 12°
2026-05-05 10:53 20.26599 -82.36479 34997 ft 453 kts 12°
2026-05-05 10:53 20.32648 -82.34594 34998 ft 453 kts 12°
2026-05-05 10:54 20.38691 -82.32714 34998 ft 453 kts 12°
2026-05-05 10:54 20.44734 -82.30853 34998 ft 452 kts 12°
2026-05-05 10:55 20.50791 -82.29021 34999 ft 452 kts 11°
2026-05-05 10:55 20.56850 -82.27207 34999 ft 452 kts 11°
2026-05-05 10:56 20.62916 -82.25395 35001 ft 452 kts 11°
2026-05-05 10:56 20.68972 -82.23586 35002 ft 452 kts 11°
2026-05-05 10:57 20.74992 -82.21784 35002 ft 452 kts 11°
2026-05-05 10:57 20.81083 -82.19960 35002 ft 452 kts 11°
2026-05-05 10:58 20.87099 -82.18155 35003 ft 452 kts 11°
2026-05-05 10:58 20.93153 -82.16336 35003 ft 451 kts 11°
2026-05-05 10:59 20.99197 -82.14519 35004 ft 451 kts 11°
2026-05-05 10:59 21.05240 -82.12700 35004 ft 451 kts 11°
2026-05-05 11:00 21.11286 -82.10878 35002 ft 451 kts 11°
2026-05-05 11:00 21.17336 -82.09054 35001 ft 451 kts 11°
2026-05-05 11:01 21.23379 -82.07229 35002 ft 451 kts 11°
2026-05-05 11:01 21.29423 -82.05403 35002 ft 451 kts 11°
2026-05-05 11:02 21.35434 -82.03586 35003 ft 451 kts 11°
2026-05-05 11:02 21.41484 -82.01755 35003 ft 451 kts 11°
2026-05-05 11:03 21.47524 -81.99925 35003 ft 451 kts 11°
2026-05-05 11:03 21.53567 -81.98092 35004 ft 451 kts 11°
2026-05-05 11:04 21.59612 -81.96258 35004 ft 451 kts 11°
2026-05-05 11:04 21.65616 -81.94435 35005 ft 451 kts 11°
2026-05-05 11:05 21.71662 -81.92598 35005 ft 451 kts 11°
2026-05-05 11:05 21.77717 -81.90757 35015 ft 451 kts 11°
2026-05-05 11:06 21.83737 -81.88924 35017 ft 451 kts 11°
2026-05-05 11:06 21.89801 -81.87076 35018 ft 451 kts 11°
2026-05-05 11:07 21.95844 -81.85232 35018 ft 451 kts 11°
2026-05-05 11:07 22.01888 -81.83387 35062 ft 451 kts 11°
2026-05-05 11:08 22.07894 -81.81553 35005 ft 453 kts 11°
2026-05-05 11:08 22.13940 -81.79707 35003 ft 451 kts 11°
2026-05-05 11:09 22.19991 -81.77861 35003 ft 451 kts 11°
2026-05-05 11:09 22.26027 -81.76008 35015 ft 451 kts 11°
2026-05-05 11:10 22.32061 -81.74148 35016 ft 451 kts 11°
2026-05-05 11:10 22.38099 -81.72306 35017 ft 451 kts 10°
2026-05-05 11:11 22.44143 -81.70487 35017 ft 450 kts 10°
2026-05-05 11:11 22.50197 -81.68676 35018 ft 450 kts 10°
2026-05-05 11:12 22.56193 -81.66883 35019 ft 450 kts 10°
2026-05-05 11:12 22.62234 -81.65076 35019 ft 450 kts
2026-05-05 11:13 22.68265 -81.63270 35020 ft 449 kts
2026-05-05 11:13 22.74300 -81.61460 35020 ft 449 kts
2026-05-05 11:14 22.80318 -81.59653 35021 ft 449 kts
2026-05-05 11:14 22.86294 -81.57856 35021 ft 448 kts
2026-05-05 11:15 22.92309 -81.56045 35022 ft 448 kts
2026-05-05 11:15 22.98319 -81.54235 35022 ft 448 kts
2026-05-05 11:16 23.04324 -81.52424 35022 ft 447 kts
2026-05-05 11:16 23.10321 -81.50614 35022 ft 447 kts
2026-05-05 11:17 23.16315 -81.48803 35022 ft 447 kts
2026-05-05 11:17 23.22274 -81.47001 35022 ft 446 kts
2026-05-05 11:18 23.28250 -81.45193 35022 ft 446 kts
2026-05-05 11:18 23.34229 -81.43382 35021 ft 446 kts
2026-05-05 11:19 23.40212 -81.41569 35018 ft 445 kts
2026-05-05 11:19 23.46183 -81.39756 35018 ft 446 kts
2026-05-05 11:20 23.52153 -81.37943 35015 ft 445 kts
2026-05-05 11:20 23.58131 -81.36125 35014 ft 446 kts
2026-05-05 11:21 23.64070 -81.34317 35012 ft 445 kts
2026-05-05 11:21 23.70048 -81.32495 35011 ft 445 kts
2026-05-05 11:22 23.76010 -81.30677 35011 ft 445 kts
2026-05-05 11:22 23.81989 -81.28851 35009 ft 445 kts
2026-05-05 11:23 23.87919 -81.27037 35008 ft 445 kts
2026-05-05 11:23 23.93888 -81.25210 35007 ft 445 kts
2026-05-05 11:24 23.99890 -81.23554 35004 ft 439 kts
2026-05-05 11:24 24.02811 -81.22937 34801 ft 422 kts
2026-05-05 11:24 24.05638 -81.22412 34416 ft 401 kts
2026-05-05 11:24 24.08340 -81.21962 33979 ft 386 kts
2026-05-05 11:25 24.10972 -81.21564 33527 ft 377 kts 360°
2026-05-05 11:25 24.13557 -81.21199 33074 ft 372 kts 359°
2026-05-05 11:25 24.16110 -81.20852 32622 ft 367 kts 359°
2026-05-05 11:25 24.18635 -81.20515 32169 ft 363 kts 359°
2026-05-05 11:26 24.21133 -81.20182 31717 ft 360 kts 359°
2026-05-05 11:26 24.23579 -81.19854 31270 ft 357 kts 359°
2026-05-05 11:26 24.26035 -81.19522 30818 ft 354 kts 359°
2026-05-05 11:26 24.28468 -81.19189 30367 ft 351 kts 360°
2026-05-05 11:27 24.30885 -81.18855 29915 ft 348 kts 360°
2026-05-05 11:27 24.33286 -81.18519 29463 ft 346 kts 360°
2026-05-05 11:27 24.35666 -81.18184 29012 ft 344 kts
2026-05-05 11:27 24.38035 -81.17847 28560 ft 342 kts
2026-05-05 11:28 24.40395 -81.17510 28108 ft 341 kts
2026-05-05 11:28 24.42741 -81.17174 27657 ft 339 kts
2026-05-05 11:28 24.45083 -81.16838 27206 ft 338 kts
2026-05-05 11:28 24.47385 -81.16506 26760 ft 337 kts
2026-05-05 11:29 24.49707 -81.16171 26309 ft 336 kts
2026-05-05 11:29 24.52017 -81.15838 25858 ft 335 kts
2026-05-05 11:29 24.54320 -81.15505 25408 ft 333 kts
2026-05-05 11:29 24.56619 -81.15189 24958 ft 332 kts 359°
2026-05-05 11:30 24.58908 -81.14897 24507 ft 331 kts 359°
2026-05-05 11:30 24.61190 -81.14622 24057 ft 329 kts 359°
2026-05-05 11:30 24.63465 -81.14360 23606 ft 328 kts 358°
2026-05-05 11:30 24.65730 -81.14107 23156 ft 327 kts 358°
2026-05-05 11:31 24.67254 -81.13941 22852 ft 326 kts 358°
2026-05-05 11:31 24.69474 -81.13700 22408 ft 324 kts 358°
2026-05-05 11:31 24.71717 -81.13460 21958 ft 323 kts 358°
2026-05-05 11:31 24.73950 -81.13221 21507 ft 321 kts 358°
2026-05-05 11:32 24.76170 -81.12983 21056 ft 320 kts 358°
2026-05-05 11:32 24.78380 -81.12747 20605 ft 318 kts 358°
2026-05-05 11:32 24.80582 -81.12512 20155 ft 317 kts 358°
2026-05-05 11:32 24.82772 -81.12248 19704 ft 318 kts
2026-05-05 11:33 24.84945 -81.11757 19259 ft 320 kts
2026-05-05 11:33 24.87095 -81.11071 18815 ft 321 kts 10°
2026-05-05 11:33 24.89186 -81.10272 18378 ft 322 kts 13°
2026-05-05 11:33 24.91273 -81.09386 17937 ft 321 kts 15°
2026-05-05 11:34 24.93342 -81.08449 17488 ft 320 kts 16°
2026-05-05 11:34 24.95387 -81.07485 17038 ft 319 kts 17°
2026-05-05 11:34 24.97416 -81.06506 16587 ft 318 kts 17°
2026-05-05 11:34 24.99432 -81.05521 16137 ft 316 kts 18°
2026-05-05 11:35 25.01433 -81.04534 15686 ft 314 kts 18°
2026-05-05 11:35 25.03429 -81.03547 15234 ft 312 kts 18°
2026-05-05 11:35 25.05406 -81.02567 14783 ft 310 kts 18°
2026-05-05 11:35 25.07350 -81.01602 14337 ft 309 kts 19°
2026-05-05 11:36 25.09317 -81.00627 13884 ft 307 kts 19°
2026-05-05 11:36 25.11247 -80.99670 13435 ft 305 kts 19°
2026-05-05 11:36 25.13184 -80.98711 12984 ft 303 kts 19°
2026-05-05 11:36 25.15112 -80.97756 12531 ft 302 kts 19°
2026-05-05 11:37 25.17019 -80.96811 12082 ft 300 kts 20°
2026-05-05 11:37 25.18895 -80.95882 11637 ft 298 kts 20°
2026-05-05 11:37 25.20794 -80.94943 11185 ft 296 kts 20°
2026-05-05 11:37 25.22678 -80.94011 10731 ft 294 kts 21°
2026-05-05 11:38 25.24538 -80.93090 10282 ft 292 kts 21°
2026-05-05 11:38 25.26363 -80.92186 9841 ft 290 kts 21°
2026-05-05 11:38 25.28207 -80.91272 9390 ft 288 kts 22°
2026-05-05 11:38 25.30030 -80.90368 8929 ft 285 kts 22°
2026-05-05 11:39 25.31834 -80.89472 8487 ft 283 kts 22°
2026-05-05 11:39 25.33621 -80.88582 8037 ft 280 kts 22°
2026-05-05 11:39 25.35372 -80.87709 7591 ft 278 kts 23°
2026-05-05 11:39 25.37140 -80.86835 7130 ft 275 kts 23°
2026-05-05 11:40 25.38869 -80.85997 6685 ft 272 kts 22°
2026-05-05 11:40 25.40620 -80.85164 6232 ft 270 kts 22°
2026-05-05 11:40 25.42326 -80.84370 5785 ft 268 kts 21°
2026-05-05 11:40 25.44057 -80.83614 5332 ft 265 kts 20°
2026-05-05 11:41 25.45768 -80.82909 5077 ft 257 kts 20°
2026-05-05 11:41 25.47453 -80.82242 5023 ft 257 kts 19°
2026-05-05 11:41 25.49093 -80.81513 5012 ft 256 kts 23°
2026-05-05 11:41 25.50716 -80.80688 5004 ft 257 kts 25°
2026-05-05 11:42 25.52331 -80.79828 5002 ft 257 kts 26°
2026-05-05 11:42 25.53943 -80.78955 5001 ft 258 kts 26°
2026-05-05 11:42 25.55550 -80.78080 5003 ft 258 kts 26°
2026-05-05 11:42 25.57159 -80.77203 5001 ft 257 kts 26°
2026-05-05 11:43 25.58765 -80.76328 5001 ft 257 kts 26°
2026-05-05 11:43 25.60371 -80.75452 5001 ft 257 kts 26°
2026-05-05 11:43 25.61977 -80.74576 5002 ft 257 kts 26°
2026-05-05 11:43 25.63587 -80.73698 5001 ft 257 kts 26°
2026-05-05 11:44 25.65200 -80.72866 5002 ft 257 kts 24°
2026-05-05 11:44 25.66797 -80.72085 5032 ft 246 kts 24°
2026-05-05 11:44 25.68351 -80.71340 5002 ft 242 kts 23°
2026-05-05 11:44 25.69894 -80.70607 5001 ft 240 kts 23°
2026-05-05 11:45 25.71428 -80.69879 5005 ft 239 kts 23°
2026-05-05 11:45 25.72944 -80.69162 5006 ft 238 kts 23°
2026-05-05 11:45 25.74472 -80.68438 5004 ft 237 kts 23°
2026-05-05 11:45 25.75997 -80.67717 4772 ft 241 kts 23°
2026-05-05 11:46 25.77532 -80.66995 4527 ft 237 kts 23°
2026-05-05 11:46 25.79057 -80.66284 4272 ft 236 kts 23°
2026-05-05 11:46 25.80556 -80.65592 4024 ft 235 kts 23°
2026-05-05 11:46 25.81919 -80.64616 3749 ft 233 kts 43°
2026-05-05 11:47 25.82779 -80.63120 3637 ft 232 kts 68°
2026-05-05 11:47 25.83001 -80.61356 3557 ft 233 kts 92°
2026-05-05 11:47 25.82542 -80.59649 3531 ft 232 kts 116°
2026-05-05 11:47 25.81585 -80.58211 3564 ft 232 kts 130°
2026-05-05 11:48 25.79704 -80.55424 3534 ft 214 kts 120°
2026-05-05 11:48 25.79213 -80.53911 3490 ft 203 kts 104°
2026-05-05 11:48 25.79080 -80.52375 3526 ft 199 kts 92°
2026-05-05 11:49 25.79140 -80.50853 3519 ft 195 kts 87°
2026-05-05 11:49 25.79257 -80.49360 3564 ft 193 kts 86°
2026-05-05 11:49 25.79362 -80.47879 3331 ft 189 kts 86°
2026-05-05 11:49 25.79428 -80.46521 3118 ft 168 kts 88°
2026-05-05 11:50 25.79476 -80.45231 2814 ft 166 kts 89°
2026-05-05 11:50 25.79522 -80.43974 2541 ft 163 kts 88°
2026-05-05 11:50 25.79567 -80.42719 2272 ft 161 kts 88°
2026-05-05 11:50 25.79609 -80.41481 2028 ft 160 kts 88°
2026-05-05 11:51 25.79654 -80.40251 1809 ft 159 kts 88°
2026-05-05 11:51 25.79700 -80.39040 1600 ft 159 kts 87°
2026-05-05 11:51 25.79748 -80.37822 1397 ft 158 kts 87°
2026-05-05 11:51 25.79793 -80.36601 1175 ft 157 kts 86°
2026-05-05 11:52 25.79837 -80.35388 961 ft 157 kts 86°
2026-05-05 11:52 25.79887 -80.34173 760 ft 157 kts 86°
2026-05-05 11:52 25.79943 -80.32969 608 ft 155 kts 85°
2026-05-05 11:52 25.80002 -80.31792 396 ft 153 kts 86°
2026-05-05 11:53 25.80053 -80.30625 165 ft 148 kts 86°
2026-05-05 11:53 25.80092 -80.29531 31 ft 132 kts 86°
2026-05-05 11:53 25.80133 -80.28650 20 ft 88 kts 85°
2026-05-05 11:53 25.80151 -80.28238 20 ft 37 kts 89°
2026-05-05 11:54 25.80132 -80.27994 20 ft 26 kts 117°
2026-05-05 11:54 25.80015 -80.27906 20 ft 16 kts 169°
2026-05-05 11:54 25.79931 -80.27896 20 ft 8 kts 175°
2026-05-05 11:54 25.79889 -80.27893 20 ft 6 kts 177°
2026-05-05 11:55 25.79836 -80.27891 20 ft 5 kts 177°
2026-05-05 11:55 25.79819 -80.27890 20 ft 8 kts 177°
2026-05-05 11:55 25.79782 -80.27888 20 ft 3 kts 177°
2026-05-05 11:55 25.79779 -80.27887 20 ft 0 kts 177°